Location: ????????
(55.6950°N, 39.3258°E)
Time: 21:16:02
(UTC+00:00)

Daily predictions for brighter satellites

Satellite Brightness Start Highest point End
(mag) Time Altitude Azimuth Time Altitude Azimuth Time Altitude Azimuth
Cosmos 2061 Rocket 4.4 14:46:55 10° N 14:53:03 44° ENE 14:59:03 10° SE
SL-16 R/B 2.7 14:47:33 10° NNE 14:53:47 83° WNW 15:00:00 10° SSW
Radarsat Rocket 4.2 14:52:40 10° SE 14:58:21 51° ENE 15:04:30 10° NNW
Cosmos 2173 Rocket 4.2 14:53:42 10° NNW 15:00:05 86° W 15:06:19 10° S
Cosmos 1867 4.4 14:56:13 10° S 15:01:03 34° ESE 15:05:56 10° ENE
SJ-6B 4.1 14:59:50 10° E 15:02:00 16° ENE 15:04:11 10° NNE
NOSS 3 (A) 3.6 15:00:42 10° SSW 15:02:12 37° SE 15:03:27 13° ENE
CZ-4C R/B 3.3 14:59:09 10° SSE 15:02:13 19° ESE 15:05:47 10° ENE
USA 306 3.0 14:59:53 10° W 15:03:00 39° SSW 15:05:16 10° SE
CZ-2D R/B 3.7 14:59:31 10° SE 15:03:13 41° ENE 15:07:00 10° N
Meteor 2-21 Rocket 4.5 14:57:39 10° S 15:03:49 69° E 15:10:00 10° NNE
Cosmos 1315 Rocket 2.8 15:01:01 10° N 15:04:45 53° ENE 15:08:28 10° SSE
Cosmos 2100 Rocket 4.3 15:00:00 10° NNW 15:06:18 77° W 15:12:28 10° S
NOSS 0 Rocket 4.0 15:00:24 10° NW 15:06:41 69° NE 15:12:53 10° SE
CZ-2D R/B 3.0 15:05:07 10° S 15:08:10 71° WSW 15:11:14 10° NNW
Geosat FO 4.2 15:09:26 10° NNE 15:12:37 85° WNW 15:15:42 10° SW
USA 267 3.4 15:07:26 10° ENE 15:13:59 68° SSE 15:20:30 10° SW
Meteor 1-21 Rocket 4.4 15:08:32 10° S 15:14:21 63° E 15:20:13 10° NNE
Cosmos 2151 Rocket 3.6 15:10:10 10° N 15:14:38 59° ENE 15:19:04 10° SSE
Cosmos 2082 Rocket 3.6 15:10:47 10° W 15:15:50 32° NW 15:20:56 10° NNE
BREEZE-M (TANK) 3.7 15:16:16 10° WSW 15:18:16 25° S 15:21:41 10° ESE
CZ-4 R/B 3.1 15:18:10 12° ENE 15:18:46 12° NE 15:20:15 10° NNE
Lacrosse 5 rocket 2.0 15:15:45 10° SSW 15:18:51 31° SE 15:21:27 14° E
SAR-Lupe-1 4.0 15:16:58 10° SSE 15:20:33 88° ENE 15:24:09 10° NNW
RESURS DK-1 4.5 15:19:05 10° NNW 15:20:44 12° NNE 15:22:24 10° NE
DNEPR-1 R/B 4.3 15:16:46 10° NW 15:21:04 43° NNE 15:25:40 12° E
CARTOSAT-1 3.7 15:19:48 10° SE 15:23:50 47° ENE 15:27:53 10° N
Cosmos 2297 Rocket 3.5 15:21:50 10° SE 15:25:41 19° E 15:28:54 12° ENE
Meteor 1-31 Rocket 4.2 15:25:00 15° ENE 15:25:50 16° ENE 15:27:59 10° NNE
Cosmos 1356 Rocket 3.2 15:22:03 10° NNW 15:25:58 73° ENE 15:29:54 10° SSE
In-Cosmos 22 Rocket 4.2 15:21:18 10° SSW 15:26:49 89° WNW 15:32:32 10° NNE
Cosmos 841 Rocket 4.1 15:24:27 10° SW 15:29:33 58° WNW 15:34:39 10° NNE
Cosmos 1814 Rocket 4.2 15:25:51 10° S 15:30:56 50° ESE 15:36:00 10° NE
Cosmos 1125 Rocket 3.4 15:26:17 10° NNW 15:31:28 69° ENE 15:36:39 10° SE
Cosmos 1441 Rocket 3.7 15:31:31 10° SSW 15:34:48 52° WNW 15:38:05 10° N
USA 290 2.6 15:32:22 10° S 15:35:23 41° ESE 15:37:45 15° NE
Cosmos 1455 Rocket 3.6 15:31:27 10° N 15:35:25 35° ENE 15:39:23 10° SE
SAR-Lupe-5 4.2 15:33:07 10° NNE 15:35:45 82° WNW 15:38:16 10° SSW
Cosmos 2084 Rocket 4.3 15:32:07 10° W 15:36:04 41° NNW 15:39:30 13° NE
SAR-Lupe-4 4.2 15:33:11 10° S 15:36:43 61° WSW 15:40:17 10° NNW
Cosmos 2123 Rocket 4.0 15:32:39 10° S 15:39:00 89° ESE 15:45:21 10° NNE
Okean 2 Rocket 3.0 15:39:29 10° N 15:43:55 82° ENE 15:48:18 10° SSE
Cosmos 2221 Rocket 4.0 15:39:46 10° SSE 15:43:56 40° E 15:48:10 10° NNE
NOAA 6 4.0 15:39:40 10° SSE 15:44:48 75° ENE 15:49:59 10° NNW
COSMOS 2428 3.2 15:39:24 10° NW 15:45:06 65° WSW 15:50:45 10° SSE
YAOGAN 1 2.7 15:41:02 10° S 15:45:18 76° WSW 15:49:36 10° NNW
Cosmos 1900 4.3 15:40:56 10° SW 15:46:01 76° SE 15:50:27 13° NE
Spot 4 Rocket 4.0 15:41:59 10° SSE 15:47:07 88° WSW 15:52:16 10° NNW
Okean 1 Rocket 3.0 15:43:10 10° N 15:47:37 78° ENE 15:52:00 10° SSE
Cosmos 1980 3.6 15:43:24 10° NNW 15:49:07 77° NE 15:54:47 10° SE
SL-19 R/B 4.4 15:43:46 10° SSE 15:49:57 82° ENE 15:55:52 10° NNW
Aureole 3 Rocket 2.9 15:45:22 10° N 15:50:06 62° ENE 15:53:39 10° SSE
YAOGAN 3 4.4 15:47:58 10° SSE 15:52:10 71° ENE 15:56:23 10° NNW
Sich 1 Rocket 3.6 15:48:46 10° N 15:53:21 83° ENE 15:57:54 10° SSE
ARIANE 5 R/B 4.3 15:49:25 10° SSW 15:54:04 34° W 15:58:42 10° NNW
Cosmos 2237 Rocket 2.1 15:49:02 10° NNW 15:54:45 78° NE 16:00:26 10° SE
Terra 3.3 15:54:39 18° NE 15:54:54 18° NE 15:58:04 10° N
ATLAS 5 CENTAUR R/B 4.0 15:55:32 10° WNW 15:58:58 24° SW 16:02:58 10° S
Cosmos 158 Rocket 3.7 15:54:30 10° SSW 15:59:20 74° ESE 16:04:13 10° NNE
Cosmos 2346 Rocket 4.5 15:56:49 10° S 16:02:59 65° E 16:09:11 10° NNE
SKYMED 2 3.7 15:59:31 10° NNE 16:03:54 76° WNW 16:08:14 10° SSW
ATLAS CENTAUR R/B 2.7 16:02:06 10° NNW 16:03:56 15° N 16:04:23 15° NNE
Resurs 01 Rocket 1.5 16:00:40 10° SSE 16:05:04 85° ENE 16:09:31 10° NNW
Cosmos 1378 Rocket 3.9 16:00:55 10° SSW 16:05:12 67° WNW 16:09:31 10° N
NOSS 3-3 (A) 4.0 16:01:20 10° SSW 16:06:24 47° SE 16:10:09 21° ENE
CZ-4B R/B 4.2 16:04:54 25° ESE 16:06:40 40° ENE 16:10:20 10° N
ARIANE 6 FM1 Upper Stage 3.1 16:03:03 10° NW 16:06:52 43° NNE 16:08:13 31° ENE
GP-B 4.4 16:04:35 10° SSW 16:08:45 43° W 16:12:57 10° NNW
COSMO-SKYMED 1 2.3 16:05:01 10° NNE 16:09:09 79° ESE 16:13:16 10° SSW
Cosmos 2150 Rocket 4.0 16:04:28 10° NNW 16:09:37 56° NE 16:13:03 20° SE
Cosmos 2298 Rocket 4.1 16:05:00 10° NNW 16:10:13 55° NE 16:13:41 21° SE
Cosmos 2292 Rocket 4.4 16:07:53 10° SW 16:10:34 33° WNW 16:13:27 10° N
Cosmos 1447 Rocket 4.4 16:04:54 10° S 16:10:58 66° E 16:17:04 10° NNE
Cosmos 2228 3.2 16:07:11 10° N 16:11:10 43° ENE 16:12:55 28° ESE
Cosmos 2285 Rocket 4.2 16:06:45 10° NNW 16:13:13 77° WSW 16:19:36 10° SSE
Cosmos 1891 Rocket 4.5 16:09:02 10° N 16:15:27 81° ENE 16:21:55 10° SSE
PSLV R/B 4.1 16:12:06 10° S 16:16:10 57° WSW 16:20:13 10° NNW
SL-16 R/B 2.5 16:12:44 10° NNW 16:18:13 46° NE 16:20:34 30° E
NOSS 3-4 (A) 3.8 16:15:01 10° NW 16:21:28 84° SW 16:27:41 16° SE
NOSS 3-4 (C) 3.8 16:15:16 10° NW 16:21:45 85° SW 16:27:54 17° SE
Cosmos 1782 3.4 16:18:36 10° N 16:21:05 32° NE 16:21:05 32° NE
Cosmos 1025 Rocket 3.1 16:19:23 10° SSW 16:23:41 77° WNW 16:28:04 10° N
Cosmos 2227 Rocket 3.8 16:20:08 10° SSE 16:21:41 16° SE 16:21:41 16° SE
Cosmos 2034 Rocket 4.1 16:23:40 10° N 16:29:40 50° ENE 16:33:16 24° SE
Cosmos 1072 Rocket 4.4 16:25:16 10° N 16:31:36 74° ENE 16:37:47 10° SSE
SPOT 5 2.9 16:29:18 25° SE 16:32:02 61° ENE 16:37:03 10° N
Cosmos 1513 Rocket 4.5 16:25:48 10° NNW 16:32:04 89° W 16:38:25 10° S
SJ-6B 2.8 16:31:34 10° S 16:34:59 64° WSW 16:38:26 10° NNW
Okean-O 4.5 16:40:04 17° NNE 16:40:04 17° NNE 16:41:39 10° N
ATLAS 2AS CENTAUR R/B 3.4 16:33:11 10° W 16:39:50 47° NNW 16:43:50 23° NE
Cosmos 1634 Rocket 4.5 16:34:01 10° N 16:39:54 38° ENE 16:40:44 36° E
Cosmos 2344 4.5 16:36:29 10° SSE 16:41:07 24° SE 16:41:07 24° SE
Cosmos 1867 3.7 16:38:54 10° WSW 16:44:21 71° NW 16:47:17 28° NE
Cosmos 724 4.4 16:38:31 10° SW 16:44:42 81° NW 16:48:23 25° NE
CZ-4B R/B 3.3 16:44:54 45° E 16:45:41 49° ENE 16:50:48 10° N
Okean O Rocket 3.3 16:47:38 19° NNE 16:47:38 19° NNE 16:49:24 10° N
CZ-4C R/B 1.8 16:44:48 10° SW 16:49:19 82° SE 16:51:11 42° ENE
CZ-4B DEB 4.1 16:48:05 33° SE 16:50:34 70° ENE 16:56:01 10° NNW
ADEOS 3.6 16:51:16 51° E 16:51:52 54° ENE 16:56:57 10° N
CZ-4 R/B 1.8 16:53:10 46° N 16:53:10 46° N 16:55:54 10° NNW
Lacrosse 5 rocket 1.3 16:51:53 10° WSW 16:54:54 63° WSW 16:54:54 63° WSW
Feng Yun 1-1 Rocket 4.2 16:54:04 36° SE 16:56:34 71° ENE 17:02:27 10° NNW
USA 267 3.2 16:54:27 39° ENE 16:57:11 83° N 17:03:46 10° W
Meteor 1-31 Rocket 3.0 16:59:00 57° NW 16:59:00 57° NW 17:01:59 10° NNW
MetOp-B 4.1 16:58:49 55° E 16:59:13 57° ENE 17:04:29 10° N
RESURS DK-1 4.0 16:55:59 10° NNW 16:58:11 23° N 16:58:11 23° N
Cosmos 1464 Rocket 4.1 16:53:21 10° NNW 16:59:46 82° W 17:06:06 10° S
Cosmos 2082 Rocket 4.3 16:57:53 10° NW 17:01:43 18° N 17:04:45 12° NNE
CSL-04 Debris 4.2 17:03:05 24° SSE 17:06:33 81° WSW 17:12:01 10° NNW
Cosmos 1607 4.0 17:01:01 10° SW 17:07:11 75° NW 17:10:02 34° NE
Cosmos 1544 Rocket 3.9 17:03:12 10° N 17:06:33 51° N 17:06:33 51° N
DNEPR-1 R/B 4.2 17:03:52 10° NW 17:08:30 61° SW 17:09:56 44° S
ERS-1 Rocket 3.0 17:08:57 61° NE 17:08:57 61° NE 17:13:33 10° N
Cosmos 2297 Rocket 2.0 17:03:15 10° SSW 17:08:55 82° ESE 17:10:46 45° NE
CSL-04 Rocket 3.7 17:05:51 21° S 17:09:27 73° WSW 17:14:45 10° NNW
USA 290 4.5 17:07:11 10° WSW 17:09:47 22° NW 17:10:24 21° NNW
Cosmos 1943 3.6 17:04:19 10° NNW 17:09:49 46° NE 17:09:49 46° NE
Cosmos 1570 Rocket 3.8 17:06:02 10° SSW 17:11:19 82° ESE 17:12:21 59° NE
Spot 2 Rocket 4.5 17:22:59 34° NNE 17:22:59 34° NNE 17:26:11 10° N
PAYLOAD B 4.2 17:23:18 50° S 17:24:49 81° WSW 17:30:29 10° NNW
TSX-5 4.4 17:21:00 10° NW 17:26:19 78° NNW 17:26:19 78° NNW
NOSS 3-3 (C) 3.8 17:22:26 10° SW 17:27:58 84° NW 17:29:14 59° NE
Cosmos 2208 Rocket 4.5 17:23:10 10° SSW 17:26:56 49° SSW 17:26:56 49° SSW
IRS-1A Rocket 4.3 17:29:23 68° NE 17:29:23 68° NE 17:34:45 10° NNW
Terra 2.6 17:33:16 45° N 17:33:16 45° N 17:36:32 10° NNW
Cosmos 2237 Rocket 4.2 17:33:40 10° NW 17:38:16 26° WSW 17:42:51 10° SSW
Resurs 01 Rocket 4.5 17:39:19 10° SW 17:42:03 16° W 17:44:48 10° NW
ARIANE 6 FM1 Upper Stage 4.4 17:42:08 10° WNW 17:44:13 29° WNW 17:44:13 29° WNW
NOSS 3-3 (A) 4.2 17:51:32 10° WSW 17:57:06 63° NNW 17:57:36 61° N
Cosmos 1833 Rocket 4.3 17:54:53 10° NNW 17:58:23 23° N 17:58:23 23° N
SL-16 R/B 2.9 17:56:58 10° NW 18:02:24 48° WSW 18:02:27 48° WSW
Cosmos 2227 Rocket 4.1 18:02:11 10° SW 18:03:35 18° SW 18:03:35 18° SW
Okean O Rocket 4.1 18:24:52 18° NNW 18:24:52 18° NNW 18:26:01 10° NNW
USA 281 4.3 18:23:41 33° NNE 18:23:41 33° NNE 18:28:13 10° NNW
CZ-4B R/B 4.4 18:26:45 36° W 18:26:45 36° W 18:31:20 10° NNW
CZ-4 R/B 4.4 18:28:09 12° WNW 18:28:09 12° WNW 18:28:49 10° NW
ATLAS 2AS CENTAUR R/B 3.4 18:25:22 10° WNW 18:31:15 45° N 18:31:15 45° N
CZ-4C R/B 3.6 18:33:12 10° W 18:36:09 33° WNW 18:36:09 33° WNW
USA 267 3.7 18:41:48 56° WNW 18:41:48 56° WNW 18:46:49 10° WNW
Cosmos 2082 Rocket 4.3 18:43:46 10° NNW 18:46:35 19° N 18:46:35 19° N
Cosmos 2297 Rocket 3.8 18:48:30 10° W 18:52:37 30° NW 18:52:37 30° NW
ACS3 Solar Sail 4.3 22:31:21 10° NNE 22:32:02 13° NE 22:32:02 13° NE
CZ-2D R/B 4.4 23:45:43 10° NNE 23:47:29 20° NE 23:47:29 20° NE
